Погода в Инге

Погода в Инге : погода сейчас, прогноз погоды и архив. Всё, что Вы хотите узнать о погоде в Инге!

Поиск расширенной информации на нашем сайте:

Другие новости

Новости СМИ2

Главная страница сайта

Новости сайта

03.07.2017

Напоминаем, что на нашем специализированном сайте Метеоцентр.Азия вы можете получить высокодетализированные автоматические прогнозы погоды по пунктам России, СНГ и мира в авиационном формате (включающие направление и скорость ветра, видимость, явления погоды, количество и форму облачности, нижнюю и верхнюю границу облачности).

Рекомендуем: инмор спб сайт

Погода в Инге - сегодня

Время (UTC), дата Ветер
(°,м/с) 
Видим.   Явления Облачность Т
(°С)
Тd
(°С)
f(%) Тe
(°С)
Pmin
(гПа)
dP
(гПа)
Po
(мм)
O2
(г/м3)
Тmin Tmax R s Состояние
почвы
21 14.08.18 тихо ()   н/о    10/4 600 м кучево-дожд., верхняя 
[Cb cap|Ci fib]
+9.7 +8.7 93 +10  1013.2  0.8  712  275           
00 15.08.18 050 (СВ) 20000 м    6/0 средняя, верхняя 
[Ac trans|Ci fib]
+10.9 +9.9 94 +13  1014.2  1.1  713  274  +9.6      влажная 
03 15.08.18 070 (В) 20000 м    8/8 600 м кучево-дожд. 
[Cb cap]
+15.9 +9.8 67 +19  1014.6  1.5  714  270           
06 15.08.18 360 (С) 10 км  слаб. ливневой дождь  10/10 600 м кучево-дожд. 
[Cb cap]
+15.6 +12.3 81 +21  1015.6  0.9  715  270           
09 15.08.18 270 (З) 20000 м  {ливн. осадки}  10/8 600 м кучево-дожд., средняя, верхняя 
[Cb cap|Ac trans|Ci sp]
+15.1 +10.1 72 +18  1017  1.2  716  271           
12 15.08.18 тихо ()   20000 м  {ливн. осадки}  10/8 600 м кучево-дожд., средняя 
[Cb cap|Ac As]
+12.9 +9.6 80 +14  1019.7  717  274    +18     
15 15.08.18 180 (Ю) н/о    10/10 600 м кучево-дожд. 
[Cb cap]
+11.4 +9.6 89 +14  1020.4  0.3  717  276           
18 15.08.18 230 (ЮЗ) н/о    10/10 600 м кучево-дожд. 
[Cb cap]
+9.8 +8.4 91 +10  1019.3  -1.3  716  277           
21 15.08.18 230 (ЮЗ) н/о    10/6 600 м кучево-дожд., средняя, верхняя 
[Cb cap|Ac trans|Ci sp]
+7.2 +6.1 93 +7  1019.5  -0.5  716  280           
00 16.08.18 тихо ()   20000 м    9/8 600 м кучево-дожд., средняя 
[Cb cap|Ac trans]
+9.3 +7.6 89 +9  1018.9  716  278  +6.8        влажная 
03 16.08.18 270 (З) 20000 м    8/0 средняя 
[Ac trans]
+18.2 +8.6 53 +19  1015.8  -1  715  269           
06 16.08.18 тихо ()   20000 м    8/4 600 м кучево-дожд., средняя 
[Cb cap|Ac trans]
+19.3 +8.3 49 +19  1014.5  -1  715  267           
09 16.08.18 290 (З) 20000 м    6/3 600 м кучево-дожд., средняя 
[Cb cap|Ac trans]
+20.3 +7.7 44 +20  1013.8  -0.4  714  267           
12 16.08.18 тихо ()   20000 м    6/3 600 м кучево-дожд., средняя 
[Cb cap|Ac cuf]
+17.4 +10.1 62 +20  1014.4  714  269    +21       
15 16.08.18 тихо ()   н/о    4/3 600 м кучево-дожд., средняя 
[Cb cap|Ac trans]
+11.6 +9.6 88 +13  1015.7  714  274           
18 16.08.18 тихо ()   н/о    ясно 
+6.8 +5.9 94 +7  1015.9  -0.9  714  279           
21 16.08.18 тихо ()   н/о    ясно 
+5.8 +4.9 94 +6  1015.2  -0.9  713  280           
00 17.08.18 230 (ЮЗ) 20000 м    ясно 
+8.7 +7.2 90 +9  1014.8  0.3  713  277  +5.1        влажная 
03 17.08.18 тихо ()   20000 м    ясно 
+19 +10.7 59 +22  1011.4  -1  712  266           
06 17.08.18 340 (С) 20000 м    ясно 
+23 +9.3 42 +24  1008.3  -2.1  711  262           
09 17.08.18 020 (С) 20000 м    1/0 верхняя 
[Ci fib]
+24.2 +9.8 40 +26  1007  -1.1  710  261           
12 17.08.18 тихо ()   20000 м    6/0 верхняя 
[Ci]
+20.8 +16.6 77 +34  1007.4  -0.1  710  262    +24.8       
15 17.08.18 тихо ()   н/о    1/0 верхняя 
[Ci fib]
+11.5 +10.1 91 +14  1009.9  0.3  710  273           
18 17.08.18 тихо ()   н/о    ясно 
+7.8 +6.9 94 +8  1009.1  -1.6  709  276           
21 17.08.18 тихо ()   н/о    3/0 верхняя 
[Ci fib]
+6.3 +5.6 95 +6  1007.9  -1.4  708  278           
Время (UTC), дата Ветер
(°,м/с) 
Видим.   Явления Облачность Т
(°С)
Тd
(°С)
f(%) Тe
(°С)
Pmin
(гПа)
dP
(гПа)
Po
(мм)
O2
(г/м3)
Тmin Tmax R s Состояние
почвы

Для получения пояснительной информации подведите курсор к названию столбца.

ПОГОДА в Инге - архив

Всё, что Вы хотите узнать о погоде в Инге - удобно и подробно!

Выберите нужную дату (начиная с 1 января 2015* года) и нажмите кнопку "Найти".
Будут отображены архивные сводки погоды по пункту Инга, начиная с указанной даты.


Отображать данные в формате CSV (для использования в таблицах Excel)


Внимание! Наш архив погоды предназначен исключительно для личного некоммерческого использования в познавательных целях. Если Вам необходимы официальные справки о состоянии погоды (для производственных, юридических, коммерческих и т.п. целей), обращайтесь в органы Росгидромета.

*Примечание: данная дата относится к архиву по метеостанциям СССР (Россия, СНГ, Балтия).
Архив по метеостанциям Зарубежной Европы и Азии (кроме Китая) хранится 10 дней, по другим регионам земного шара (Китай, Африка, Америка, Австралия, Океания) - 1 день.

Инга - район местоположения метеостанции


Название, широта, долгота, высота метеостанции:
Инга 53°ш. 102°д. 543 м над ур. моря [Российская Федерация]

Дополнительная информация

В oтличие oт бoльшинства пoгoдных сайтoв мы публикуем пoдрoбную метеoинфoрмацию в детальнoм прoфессиoнальнoм фoрмате.

Характеристики температуры и влажнoсти вoздуха измеряются на высoте 2 м в тени вдали oт зданий и деревьев.
Скoрoсть ветра измеряется на высoте 10 м (на урoвне рoста челoвека скoрoсть ветра ниже в 1.5-2 раза). Если метеoстанция нахoдится в гoрoде или в лесу, тo скoрoсть ветра занижена на 2-4 м/с пo сравнению с oткрытым местoм. Скoрoсть ветра над акватoриями крупных рек и oзёр, а также на вершинах хoлмoв на 2-5 м/с выше, чем в oбычных услoвиях.
Атмoсфернoе давление в разных тoчках местнoсти мoжет значительнo oтличаться oт давления на метеoстанции, в зависимoсти oт услoвий рельефа (при пoдъёме на 10 м давление пoнижается примернo на 1 мм рт.ст.).